Location: Silverdale
(47.6506°N, 122.6941°W)
Time: 05:12:25
(UTC+00:00)

Altair - Pass Details

Date: 07 October 2022
Orbit: 1501 x 1682 km, 47.2° (Epoch: 05 December)

Event Time Altitude Azimuth Distance (km) Brightness Sun altitude
Rises 12:43:51 0° 239° (WSW) 4,743 - -16.7°
Reaches altitude 10° 12:46:53 10° 238° (WSW) 3,784 - -16.2°
Exits shadow 12:48:28 17° 236° (SW) 3,298 8.7 -15.9°
Maximum altitude 12:56:28 70° 157° (SSE) 1,713 7.8 -14.6°
Drops below altitude 10° 13:06:26 10° 76° (ENE) 3,923 11.1 -12.9°
Sets 13:09:38 0° 75° (ENE) 4,925 12.1 -12.4°
